Theta_e
314 314 314 314 314 313 314 315 316 316 316 316 315 315 315 315 314 315 315 314 315 314 314 314 315 316 315 307 306 318 339 337 326 317 314 313 314 317 312 314 315 314 315 316 317 315 314
310 310 311 311 312 313 313 312 313 314 314 315 316 316 316 315 315 315 315 315 315 315 315 314 315 316 312 300 313 316 318 324 319 315 313 314 313 316 313 313 313 316 316 314 315 314 314
309 309 309 309 309 309 310 311 312 312 312 313 314 315 316 315 315 315 315 314 314 315 314 314 315 314 308 304 315 318 317 318 322 318 312 314 316 314 315 312 317 315 310 312 313 314 312
310 310 310 310 309 309 309 309 309 310 311 312 313 313 314 315 316 315 315 314 314 314 315 315 316 312 303 314 316 313 315 314 315 318 319 320 319 314 313 316 313 310 310 304 311 313 314
312 312 312 311 311 310 310 309 309 308 308 310 312 312 312 312 313 315 315 314 315 314 316 316 311 307 300 316 311 314 316 311 317 318 318 318 315 313 311 306 305 307 302 304 307 313 312
311 311 312 312 313 312 312 311 311 310 309 308 309 312 312 312 312 314 313 314 314 315 314 315 311 305 311 308 310 314 315 314 310 312 310 311 310 307 307 304 297 301 302 304 305 310 311
311 311 312 312 312 312 312 312 312 311 310 310 308 310 311 312 312 312 311 311 308 308 307 305 305 303 308 315 316 311 315 311 310 308 302 307 303 301 305 307 306 306 305 305 309 312 310
310 310 310 311 311 311 312 312 313 312 312 311 310 308 309 311 311 312 310 304 308 309 301 308 309 307 309 312 306 309 314 307 305 300 304 303 301 306 308 308 306 305 304 304 308 311 309
309 309 309 309 310 311 311 311 312 312 312 312 311 309 308 309 311 308 305 306 313 313 300 303 309 310 309 310 306 307 309 307 304 300 301 299 303 308 307 306 304 305 304 305 305 308 310
308 308 308 309 309 310 310 311 311 312 312 312 312 311 308 309 305 309 308 312 315 311 293 296 301 305 310 311 304 312 312 308 305 300 301 301 306 306 306 304 307 302 308 308 306 304 299
307 307 308 309 309 310 310 310 310 310 311 311 311 311 309 307 305 304 309 312 311 307 284 303 303 313 309 307 307 307 312 309 303 302 302 300 303 303 305 306 308 305 310 308 307 304 303
307 307 307 308 309 309 309 310 310 311 311 311 311 311 310 305 305 307 309 313 307 291 283 299 307 304 303 305 306 309 307 310 309 304 304 302 308 308 308 310 310 310 308 307 306 303 297
307 306 307 308 309 309 309 309 310 310 310 311 311 311 309 307 300 309 310 305 289 284 298 298 302 304 302 301 302 304 302 302 300 297 298 302 302 307 310 306 310 308 305 297 295 294 294
307 307 307 308 308 308 309 309 309 310 310 310 310 310 309 309 307 307 304 295 283 290 292 304 305 304 300 303 302 302 301 299 304 302 299 297 295 303 309 307 305 306 305 297 292 292 295
306 306 306 307 308 308 309 308 309 309 309 309 308 308 306 308 307 305 296 284 286 291 297 296 299 297 300 303 303 302 302 301 303 305 299 298 298 307 308 310 310 305 301 306 300 301 297
305 305 306 307 307 308 309 309 309 309 309 309 306 303 302 309 308 303 291 285 291 296 296 296 292 298 295 301 301 301 301 305 303 306 309 305 299 306 307 311 311 309 308 299 300 292 292
306 306 306 307 307 308 309 309 309 309 309 308 305 294 303 309 309 295 285 287 292 297 297 294 293 294 296 295 300 301 301 304 306 306 308 308 307 304 308 306 304 305 303 304 304 300 294
306 305 306 306 307 308 308 309 309 309 307 304 299 289 307 307 291 290 287 292 294 294 297 295 296 295 295 297 297 298 302 305 309 308 304 308 307 302 304 309 311 308 305 306 299 299 301
305 305 306 306 307 307 308 308 308 308 305 302 295 297 307 303 285 286 293 291 293 292 293 293 293 295 298 296 294 301 304 309 310 308 307 309 304 300 302 306 309 305 307 308 309 308 302
305 305 306 306 307 308 308 308 308 308 306 304 297 289 298 300 298 292 289 289 289 296 294 293 293 295 295 294 299 298 302 308 309 310 311 312 307 303 299 303 307 304 305 306 305 301 300
304 305 306 307 307 308 308 308 307 307 306 301 298 292 295 289 291 291 290 290 287 287 295 295 293 293 293 291 294 298 299 300 305 310 311 312 302 307 306 307 306 305 304 304 303 305 300
305 306 306 307 307 308 308 308 307 307 306 299 293 293 296 292 293 290 289 289 288 289 291 291 291 293 294 292 293 293 296 298 299 302 308 314 303 307 302 306 306 303 305 305 305 304 304
305 306 307 307 307 308 308 308 308 307 305 298 300 301 296 291 291 289 290 290 290 292 293 295 294 293 291 294 298 300 301 302 302 301 303 310 306 303 300 304 304 300 304 305 306 307 307
305 306 307 307 307 307 308 308 308 307 306 302 301 300 291 287 291 288 291 291 291 292 291 294 295 294 296 302 301 301 300 300 303 305 309 308 307 305 301 303 293 304 311 309 308 308 310
305 306 306 307 307 307 308 308 308 307 306 302 303 297 292 289 291 291 291 292 293 294 293 293 295 298 302 300 293 292 295 299 301 305 307 311 308 302 299 298 302 303 307 307 307 307 312
305 305 306 306 307 307 308 308 308 307 306 304 306 304 295 291 291 294 292 293 291 291 292 295 299 302 302 297 292 286 288 295 296 300 308 309 311 305 302 297 294 304 309 312 312 302 314
305 305 306 306 306 307 308 308 307 307 307 306 306 308 297 291 295 296 291 292 295 293 291 295 297 297 301 294 288 287 287 295 292 296 299 301 303 300 300 301 301 309 311 313 300 304 316
306 306 306 306 307 307 307 308 308 308 307 306 307 309 301 294 296 299 299 295 295 294 289 294 296 297 295 291 290 290 288 291 293 297 296 299 298 300 302 299 295 312 310 306 316 327 322
306 306 306 306 306 307 307 307 308 307 307 306 303 310 309 297 296 302 302 303 301 299 295 296 294 297 296 295 294 294 292 291 291 291 303 294 303 301 303 304 319 317 318 324 324 320 318
Wind_Speed
17 17 17 16 15 14 14 14 14 13 14 14 15 16 15 13 14 14 15 17 17 18 17 17 16 14 11 12 16 14 11 7 11 16 22 24 27 26 27 24 24 27 26 24 17 14 22
15 15 16 16 17 16 15 15 15 15 15 15 16 16 16 16 14 14 15 15 16 16 17 17 15 15 9 21 14 17 19 10 11 18 21 22 24 24 25 24 26 23 24 21 17 25 24
17 17 16 16 16 17 17 16 16 16 15 14 14 16 17 16 16 16 16 15 16 18 21 20 15 9 15 25 12 18 18 19 16 18 18 21 23 27 22 26 24 23 25 23 22 20 22
15 16 16 16 16 16 17 18 18 18 17 16 15 14 15 16 17 16 18 18 19 21 23 21 14 10 14 11 22 30 27 19 17 20 17 14 20 24 25 21 23 23 26 21 22 22 24
16 15 15 15 15 15 16 16 18 18 19 19 17 16 16 17 17 17 18 19 23 25 22 16 8 10 17 11 25 29 24 23 16 15 12 16 20 19 20 21 20 20 18 25 23 22 23
19 19 19 18 16 14 15 16 17 17 18 19 18 17 16 17 18 16 17 21 26 17 12 10 13 12 19 21 22 24 26 24 20 16 18 20 17 18 18 17 22 19 23 21 22 23 21
21 21 21 20 20 18 18 19 18 17 17 18 18 17 17 16 15 15 14 13 8 8 14 15 15 18 9 14 20 23 19 24 22 20 21 19 16 22 24 26 26 25 23 23 22 16 9
20 20 21 21 21 20 19 19 18 19 19 18 17 18 17 18 17 15 12 11 15 13 13 29 32 27 26 19 11 15 16 23 26 27 22 22 25 26 26 24 27 27 25 23 20 18 14
21 21 21 21 21 20 20 20 19 19 18 17 14 15 17 18 17 13 16 23 21 22 12 22 28 31 30 26 24 19 24 24 26 27 27 27 24 27 27 24 26 26 24 21 22 17 16
22 22 22 21 20 20 22 21 21 21 19 18 15 12 14 15 12 10 16 17 18 8 10 17 25 28 31 28 34 26 24 23 22 29 30 30 26 28 28 26 25 24 24 24 17 15 12
23 22 21 21 20 20 21 21 22 21 20 19 17 14 12 9 16 11 12 15 6 5 10 9 35 12 23 34 10 34 30 29 27 27 24 30 28 30 28 27 27 22 23 18 13 15 14
23 24 23 22 22 22 21 21 21 21 20 19 16 14 10 11 13 14 14 14 5 9 17 10 10 27 25 30 34 14 35 29 25 25 28 29 24 30 30 25 25 24 21 11 12 12 13
24 24 24 23 23 23 23 22 21 20 19 18 17 14 12 11 13 8 8 9 9 16 9 12 23 26 26 27 32 32 32 31 27 27 28 25 33 30 30 29 22 23 12 11 10 11 11
24 23 23 24 25 25 24 23 21 20 19 17 15 11 11 12 13 8 5 8 17 21 35 13 18 24 27 24 29 34 27 27 30 31 15 23 24 34 27 29 24 21 17 11 11 11 16
25 23 23 24 25 25 25 23 21 19 18 13 8 8 9 12 14 5 5 12 22 26 18 32 31 27 24 26 22 31 34 30 31 32 26 22 29 23 32 23 22 19 23 17 17 15 12
24 24 24 24 25 25 26 23 20 18 16 9 5 6 11 12 14 3 6 15 23 29 37 33 28 17 23 24 28 31 31 30 32 33 25 24 18 28 30 25 22 22 19 17 12 15 13
23 24 23 24 25 25 25 23 18 17 15 5 5 2 9 15 6 4 7 18 26 28 31 27 29 29 26 26 23 29 32 30 32 33 32 26 17 21 24 27 22 19 19 17 14 14 11
22 22 23 25 25 24 24 20 17 18 7 5 0 4 4 10 7 2 10 18 20 27 31 29 26 27 27 25 22 22 30 32 28 30 35 32 11 16 26 26 25 23 23 17 11 14 10
22 23 23 24 24 24 23 20 17 8 10 1 3 6 4 4 5 9 15 22 25 26 27 27 23 22 26 26 14 16 25 30 34 32 30 27 21 13 19 23 23 23 24 19 13 9 14
22 23 24 25 24 24 22 19 14 8 9 5 4 4 4 6 5 11 16 21 21 20 26 23 19 25 22 24 20 18 22 17 29 29 33 22 19 22 16 19 22 27 24 23 19 13 13
23 23 24 24 24 24 23 17 10 8 5 4 4 6 1 5 6 9 13 21 21 15 23 15 20 22 22 20 23 16 18 21 25 26 25 21 26 21 23 23 27 25 24 26 25 19 18
23 24 24 24 25 26 22 15 9 5 3 4 5 5 7 11 10 13 10 14 22 19 20 17 17 19 19 23 18 20 23 20 12 23 19 20 21 21 24 27 26 28 27 26 25 23 22
22 23 24 24 24 25 20 15 12 5 9 4 4 4 6 7 12 10 11 10 8 14 14 16 16 18 17 20 18 19 22 21 25 22 23 17 16 22 18 23 23 25 26 26 21 21 22
22 23 23 24 24 24 24 15 11 10 11 2 2 4 3 9 10 4 15 7 16 17 15 16 15 20 16 21 11 23 24 26 26 24 19 14 22 16 15 17 27 12 21 22 20 18 19
22 22 23 23 24 23 22 18 14 9 5 5 1 3 3 6 13 16 9 14 11 12 16 18 17 19 5 11 10 13 15 16 21 20 19 19 16 11 16 15 13 24 20 23 21 18 18
23 23 22 22 23 23 22 21 14 11 6 7 4 3 2 5 5 17 16 13 10 14 16 21 17 16 1 10 3 4 6 7 9 8 16 15 14 12 14 16 21 14 22 15 14 15 15
21 22 22 22 22 23 23 22 10 12 10 5 4 4 3 4 12 12 10 9 9 10 8 16 14 10 10 8 3 3 6 10 9 18 15 14 15 16 13 8 13 19 14 17 17 7 13
21 21 21 21 21 22 22 20 16 12 9 5 6 5 3 4 15 18 13 9 9 8 3 11 9 10 6 8 6 6 5 6 9 16 11 14 15 12 15 13 11 13 17 21 7 6 6
22 21 21 21 21 21 21 18 15 11 9 8 5 4 3 4 12 19 16 13 13 13 2 5 8 9 7 6 7 4 7 4 10 7 10 8 3 10 8 11 3 6 8 7 8 7 7
Wind_Direction
7 4 358 350 346 342 339 341 334 326 320 298 294 300 299 295 302 311 313 312 311 314 311 312 318 330 317 235 242 257 127 135 175 202 218 226 230 223 237 236 240 252 256 257 275 285 264
356 352 348 346 348 350 343 332 330 328 329 325 311 297 291 289 290 294 296 300 301 298 297 304 315 316 238 254 256 264 245 174 187 206 217 223 241 237 242 246 252 253 258 265 262 252 257
354 352 349 344 339 336 334 339 335 326 321 317 320 316 301 294 295 293 294 295 297 297 302 304 305 287 259 245 269 273 279 202 216 199 218 223 233 249 246 247 256 261 263 266 255 253 256
352 349 347 343 340 338 333 327 323 322 326 317 314 314 320 312 300 298 298 298 295 293 295 290 284 266 255 261 242 257 267 266 231 238 236 245 229 246 259 271 259 254 260 256 259 252 249
349 343 336 330 329 328 325 325 324 322 316 318 319 314 312 312 307 299 296 294 287 284 284 273 244 216 261 233 232 240 238 233 226 218 237 238 240 233 240 249 257 247 252 253 258 247 251
353 350 345 340 333 325 319 315 314 313 315 313 311 316 308 306 305 300 299 288 276 283 238 209 250 219 242 241 235 224 223 224 229 233 233 241 228 238 221 224 233 235 239 237 252 259 259
350 347 344 340 339 337 331 325 316 307 304 306 308 305 315 310 304 305 306 298 212 195 222 211 199 212 246 209 228 219 206 215 226 229 222 225 221 224 224 223 237 244 251 246 252 258 218
347 345 341 340 338 333 326 322 317 314 303 299 300 305 303 308 308 303 286 259 272 333 286 227 253 230 248 275 242 223 202 204 206 221 215 214 221 224 231 226 231 243 252 261 274 283 287
344 342 340 338 332 328 327 324 322 318 312 298 287 293 299 305 307 281 249 253 272 292 274 257 232 234 236 235 237 227 211 205 207 210 214 219 222 222 233 223 229 234 244 254 262 274 271
338 337 337 335 329 325 323 320 318 313 311 307 289 282 290 306 290 268 261 245 231 270 273 250 214 236 220 224 238 222 209 207 213 211 215 227 224 221 225 229 220 232 232 239 254 275 270
337 334 334 331 328 326 324 320 315 314 310 302 294 272 277 267 308 288 352 335 337 226 263 231 211 189 194 198 179 205 216 198 210 210 211 223 218 230 219 220 231 232 239 242 235 246 259
334 334 332 329 329 328 324 321 314 310 306 305 293 274 262 258 238 274 284 300 253 227 235 242 219 184 190 199 216 205 198 219 212 221 223 228 228 227 233 227 220 233 237 248 257 260 249
334 332 330 329 330 329 326 323 319 311 305 301 291 270 240 262 270 289 323 268 211 229 235 249 171 174 195 193 207 227 190 201 206 209 225 216 227 231 233 229 214 224 212 222 224 235 252
332 331 329 329 331 328 325 323 320 315 308 296 289 264 231 245 256 265 286 238 227 230 242 288 205 182 199 208 202 213 185 203 207 208 208 219 217 222 215 230 219 197 208 219 226 223 243
331 330 329 330 327 326 323 322 319 317 314 298 294 256 246 234 237 204 235 227 227 245 268 242 283 283 202 214 209 203 220 201 203 207 215 208 227 207 228 207 218 191 211 214 251 252 284
333 332 332 328 328 325 324 321 318 317 316 301 274 259 241 219 220 137 220 239 253 245 264 289 291 313 306 218 222 193 202 216 209 205 220 235 215 225 207 210 203 220 190 207 231 244 267
334 333 333 330 330 328 328 326 321 317 309 295 269 285 262 211 179 183 219 219 240 257 275 279 274 300 305 302 279 208 208 220 202 207 210 227 244 209 206 203 190 204 221 198 225 225 225
336 337 334 332 331 331 331 329 325 322 302 190 138 252 5 161 177 251 241 245 268 275 284 291 290 281 292 304 310 298 214 215 207 208 200 214 225 239 209 198 196 205 217 191 215 219 255
341 338 335 333 332 331 331 328 326 317 209 246 263 268 126 55 215 232 250 255 259 265 273 267 277 275 283 309 308 286 266 208 216 193 207 200 223 227 223 204 183 212 218 215 209 223 212
341 338 336 334 332 331 331 328 329 304 240 298 296 287 169 200 226 278 269 272 281 287 273 261 278 279 286 281 277 279 293 285 204 217 202 186 220 222 219 196 177 195 215 215 211 216 224
341 340 338 336 337 336 334 331 326 300 254 295 242 269 263 283 274 277 311 275 275 280 290 233 259 273 265 275 285 293 351 338 316 218 189 185 211 218 229 230 192 196 206 221 216 211 223
341 341 341 340 341 340 334 336 337 270 249 251 289 317 327 296 292 274 242 267 267 263 267 295 292 242 257 271 282 313 321 325 292 335 196 187 207 222 211 232 212 204 204 215 224 213 213
342 342 343 342 344 347 348 342 341 308 194 271 274 292 300 295 290 293 264 280 285 303 282 248 264 277 298 291 286 291 311 293 287 288 297 186 191 203 222 217 237 207 201 205 219 223 208
342 343 343 343 344 343 343 333 331 327 224 260 317 318 256 283 299 227 278 232 268 278 292 299 289 279 276 349 319 281 275 278 276 263 258 276 190 195 218 219 227 229 193 212 217 223 221
341 341 341 342 343 343 343 345 332 318 287 228 275 263 289 294 309 305 7 291 281 280 262 277 283 270 293 285 291 313 284 255 250 245 254 261 179 195 212 219 227 214 217 198 208 212 211
339 339 338 340 341 342 343 344 341 350 261 256 280 252 256 292 292 321 315 334 321 309 303 290 270 261 287 270 52 281 300 297 217 220 235 252 175 216 186 220 224 212 207 215 204 223 201
333 335 335 338 339 342 344 348 358 342 342 256 263 272 213 269 276 324 319 308 316 320 287 276 329 219 230 256 122 249 275 291 294 212 208 229 186 211 230 234 206 224 198 185 209 235 201
330 330 330 333 335 339 343 348 352 350 354 312 294 277 256 271 286 276 288 308 284 301 302 315 305 244 224 225 204 189 246 347 299 304 318 245 179 209 220 227 220 221 220 213 145 251 248
329 327 326 329 331 334 337 340 347 342 346 328 296 308 246 231 282 292 289 276 236 272 223 302 337 338 15 293 218 247 247 105 345 313 244 280 47 261 227 212 234 302 242 116 149 230 232